Weather Roundup
Issued by NWS Corpus Christi, TX

Home | Current Version | Previous Version | Text Only | Print | Product List | Glossary On
Versions: 1 2 3 4 5 6 7 8 9 10 11 12 13 14 15 16 17 18 19 20 21 22 23 24 25 26 27 28 29 30 31 32 33 34 35 36 37 38 39 40 41 42 43 44 45 46 47 48 49 50
000
ASUS44 KCRP 232010
HRRCRP

SOUTH TEXAS REGIONAL WEATHER ROUNDUP
NATIONAL WEATHER SERVICE CORPUS CHRISTI TX
200 PM CST SUN NOV 23 2014


TXZ229>244-232100-
...CORPUS CHRISTI AREA OBSERVATIONS...

CITY           SKY/WX    TMP DP  RH WIND       PRES   REMARKS
CORPUS CHRISTI MOSUNNY   80  61  52 SW14      29.62F
NAS CORPUS CHR SUNNY     82  58  43 SW9       29.62F
ROCKPORT       SUNNY     78  56  46 VRB7      29.61F
ALICE          SUNNY     86  46  24 SW14      29.62F
FALFURRIAS     SUNNY     85  46  24 W8        29.63F
$$

...VICTORIA AREA OBSERVATIONS...

CITY           SKY/WX    TMP DP  RH WIND       PRES   REMARKS
VICTORIA       SUNNY     84  47  27 SW13G22   29.58F
BEEVILLE       FAIR      82  44  26 SW13      29.61F
PLEASANTON     SUNNY     82  43  25 SW12G17   29.60F
SAN ANTONIO    MOSUNNY   80  43  26 W18G25    29.58F
$$

...LAREDO AREA OBSERVATIONS...

CITY           SKY/WX    TMP DP  RH WIND       PRES   REMARKS
LAREDO         SUNNY     85  48  27 S12       29.66F
COTULLA        SUNNY     86  38  18 W10G18    29.60
DEL RIO        SUNNY     77  44  30 SW3       29.62F
MCALLEN        SUNNY     84  53  34 S8        29.65F
HEBBRONVILLE   SUNNY     82  44  26 SW9       29.66F
$$

...OTHER TEXAS OBSERVATIONS...

CITY           SKY/WX    TMP DP  RH WIND       PRES   REMARKS
BROWNSVILLE    SUNNY     85  54  34 S8        29.65F
HOUSTON        SUNNY     78  54  43 SW12G18   29.54F
COL. STATION   SUNNY     78  48  34 SW17G24   29.51F
AUSTIN         MOSUNNY   81  40  23 W18G32    29.53F
WACO           SUNNY     77  42  28 W16       29.46F
FORT WORTH     MOSUNNY   74  40  29 W18G31    29.39S
WICHITA FALLS  SUNNY     68  40  35 NW28G39   29.39R
LUBBOCK        MOSUNNY   63  29  27 N23G33    29.59S
EL PASO        MOSUNNY   63  26  24 W39G46    29.81F
$$

...MARINE OBSERVATIONS...

STATION/POSITION TIME  SKY/WX   TEMP    WIND        PRES    VSBY  WAVE   SWELL
                                AIR SEA DIR/SP/G                  HT/PER HT/PER
                 (UTC)          (F)     (DEG/KT/KT) (MB)    (MI)  (FT/S) (FT/S)
PORT ARANSAS     2000            66 63  190/  9/  9 1004.1F
BUOY 90 E PORT A 2000            73 73  230/ 12/ 14 1004.3F         6/ 8   5/ 8
BUOY 45 SE BAFFI 2000            72 74  200/ 10/ 14 1003.8F         7/ 8   7/ 8
BUOY 200 E PT IS 2000            74 75  170/ 12/ 16 1005.6F         6/ 7   5/ 7
BUOY 15 E GALVES 2000            65 62  210/ 14/ 17 1002.0F         4/ 6
$$



USA.gov is the U.S. government's official web portal to all federal, state and local government web resources and services.